Location: The Saddle
(36.8333°N, 80.3417°W)
Time: 06:55:58
(UTC-05:00)

Vanguard 2 Rocket - Pass Details

Date: 19 December 2023
Orbit: 555 x 3309 km, 32.9° (Epoch: 02 March)

Event Time Altitude Azimuth Distance (km) Brightness Sun altitude
Rises 11:13:54 0° 245° (WSW) 4,036 10.3 27.9°
Reaches altitude 10° 11:16:12 10° 242° (WSW) 3,336 10.0 28.0°
Maximum altitude 11:24:55 65° 163° (SSE) 2,069 9.8 28.4°
Drops below altitude 10° 11:40:27 10° 86° (E) 5,650 11.1 29.1°
Sets 11:45:37 0° 84° (E) 6,959 11.4 29.3°
